Regional Weather Roundup
Issued by NWS New Orleans/Baton Rouge, LA

Home | Current Version | Previous Version | Text Only | Print | Product List | Glossary On
Versions: 1 2 3 4 5 6 7 8 9 10 11 12 13 14 15 16 17 18 19 20 21 22 23 24 25 26 27 28
000
ASUS44 KLIX 191913
RWRLIX
NEW ORLEANS REGIONAL WEATHER ROUNDUP
NATIONAL WEATHER SERVICE NEW ORLEANS LA
200 PM CDT THU OCT 19 2017

NOTE: "FAIR" INDICATES FEW OR NO CLOUDS BELOW 12,000 FEET WITH NO
      SIGNIFICANT WEATHER AND/OR OBSTRUCTIONS TO VISIBILITY.
      SKY/WX - SKY CONDITION AND SIGNIFICANT WEATHER.
      TMP - AIR TEMPERATURE.     DP    - DEWPOINT TEMPERATURE.
      RH  - RELATIVE HUMIDITY.   PRES  - PRESSURE.
      HI  - HEAT INDEX.          WCI   - WIND CHILL INDEX.

*  THESE STATIONS ARE NOT NWS OR FAA STATIONS AND ARE NOT UNDER
   NWS QUALITY CONTROL.

LAZ038-040-048-061>063-065>067-069-192000-
SOUTHEAST LOUISIANA

CITY           SKY/WX    TMP DP  RH WIND       PRES   REMARKS
N.O. INTL ARPT PTSUNNY   82  70  66 NE10      30.14F
N.O. LAKEFRONT   N/A     81  69  67 E17       30.14F
N.O. DOWNTOWN*   N/A     79  69  71 VRB3      30.15F
RESERVE*         N/A     83  67  57 E9G18     30.14F
SLIDELL          N/A     83  61  47 VRB6      30.14F
BATON ROUGE      N/A     81  62  52 SE5       30.14F
BOOTHVILLE     PTSUNNY   83  73  72 E18G24    30.14F
BELLE CHASSE   NOT AVBL
BOGALUSA*        N/A     83  62  49 CALM      30.17F
GALLIANO*        N/A     82  69  65 NE13G18   30.12F
NEW ROADS*       N/A     79  60  52 E7        30.15F
GONZALES*      MOCLDY    82  66  58 E9        30.13F
HAMMOND*         N/A     81  61  50 CALM      30.15F
HOUMA*         MOSUNNY   82  72  69 E10G16    30.12F
PORT FOURCHON* PTCLDY    82  72  69 E20       30.11F

$$

MSZ070-080>082-192000-
SOUTHERN MISSISSIPPI

CITY           SKY/WX    TMP DP  RH WIND       PRES   REMARKS
MCCOMB           N/A     79  59  50 NE5       30.17F
GULFPORT         N/A     82  67  60 SE12      30.15F
BILOXI           N/A     82  67  60 SE13      30.15F
PASCAGOULA       N/A     83  59  44 NE10G16   30.16F
STENNIS ARPT*  MOSUNNY   82  66  57 E9        30.15F

$$

COASTAL OBSERVATIONS
LAKE AND NEARSHORE STATIONS

STATION/POSITION TIME  TEMP    WIND        PRES    WAVE
                       AIR SEA DIR/SP/G            HT/PER
                 (UTC) (F)     (DEG/KT/KT) (MB)    (FT/S)
PASCAGOULA       1848   79     110/ 11/ 15 1021.2
WAVELAND YACHT   1848   75 72  130/ 12/ 15 1021.2
GRAND ISLE       1848   78 76   70/ 15/ 19 1020.1
NEW CANAL        1848   77 75   60/ 14/ 17 1020.3
SHELL BEACH      1848   76 78   70/ 14/ 19 1020.8

OFFSHORE STATIONS

STATION/POSITION TIME  TEMP    WIND        PRES    WAVE
                       AIR SEA DIR/SP/G            HT/PER
                 (UTC) (F)     (DEG/KT/KT) (MB)    (FT/S)
64 S DAUPHIN ISL 1850   78 82   70/ 17/ 21 1020.4    6/ 6

$$





USA.gov is the U.S. government's official web portal to all federal, state and local government web resources and services.